Location: Unspecified
(48.2082°N, 0.0000°E)
Time: 01:02:44
(UTC+00:00)

S-56A Canister/Altair - Pass Details

Date: 26 June 2019
Orbit: 633 x 2499 km, 38.9° (Epoch: 13 October)

Event Time Altitude Azimuth Distance (km) Brightness Sun altitude
Rises 15:25:13 0° 242° (WSW) 5,505 12.7 43.2°
Reaches altitude 10° 15:29:28 10° 236° (SW) 4,225 12.3 42.5°
Maximum altitude 15:39:11 41° 172° (S) 1,917 10.0 40.9°
Drops below altitude 10° 15:45:49 10° 105° (ESE) 2,896 10.1 39.8°
Sets 15:48:12 0° 97° (E) 3,648 10.5 39.4°
